When you browse on this site, cookies collect data to enhance your experience and personalize the content and advertising you see.
Visit our Privacy Policy to learn more. By continuing to use the site, you agree to this use of cookies and data.
  • In Slovakia
  • List of Countries
  • For 7 days
  • Water Temperature
  • Satellite Maps
  • Weather Map
  • Weather Widgets
  • user-avatar
    Login

    Hourly Weather Rio Branco

    Today, 13 December, Thursday

    Time Temperature Precipitation Wind Pressure Humidity
    00:00 +25°C° 0.1 mm 1 mps 746 mmHg 92%
    01:00 +25°C° 0.1 mm 1 mps 746 mmHg 93%
    02:00 +23°C° 0.1 mm 0 mps 746 mmHg 94%
    03:00 +23°C° 0.1 mm 0 mps 746 mmHg 95%
    04:00 +22°C° 0.1 mm 0 mps 746 mmHg 96%
    05:00 +23°C° 0.1 mm 0 mps 747 mmHg 93%
    06:00 +24°C° 0.1 mm 0 mps 747 mmHg 90%
    07:00 +27°C° 0.1 mm 1 mps 748 mmHg 87%
    08:00 +29°C° 0.3 mm 1 mps 747 mmHg 80%
    09:00 +31°C° 0.3 mm 1 mps 747 mmHg 73%
    10:00 +33°C° 0.3 mm 1 mps 747 mmHg 66%
    11:00 +33°C° 0.6 mm 1 mps 746 mmHg 65%
    12:00 +33°C° 0.6 mm 1 mps 745 mmHg 65%
    13:00 +34°C° 0.6 mm 1 mps 744 mmHg 64%
    14:00 +33°C° 0.2 mm 1 mps 744 mmHg 65%
    15:00 +33°C° 0.2 mm 1 mps 743 mmHg 66%
    16:00 +31°C° 0.2 mm 0 mps 742 mmHg 66%
    17:00 +29°C° 0 mm 0 mps 743 mmHg 72%
    18:00 +28°C° 0 mm 0 mps 743 mmHg 77%
    19:00 +28°C° 0 mm 1 mps 743 mmHg 82%
    20:00 +27°C° 0.2 mm 1 mps 744 mmHg 85%
    21:00 +27°C° 0.2 mm 1 mps 745 mmHg 88%
    22:00 +26°C° 0.2 mm 1 mps 745 mmHg 91%
    23:00 +26°C° 0.7 mm 1 mps 745 mmHg 93%

    Tomorrow, 14 December, Friday

    Time Temperature Precipitation Wind Pressure Humidity
    00:00 +25°C° 0.7 mm 1 mps 745 mmHg 96%
    01:00 +25°C° 0.7 mm 1 mps 745 mmHg 98%
    02:00 +25°C° 0.4 mm 1 mps 745 mmHg 98%
    03:00 +25°C° 0.4 mm 1 mps 745 mmHg 98%
    04:00 +24°C° 0.4 mm 1 mps 745 mmHg 98%
    05:00 +25°C° 0.1 mm 1 mps 746 mmHg 97%
    06:00 +26°C° 0.1 mm 1 mps 746 mmHg 95%
    07:00 +27°C° 0.1 mm 1 mps 747 mmHg 93%
    08:00 +29°C° 0.1 mm 2 mps 747 mmHg 84%
    09:00 +31°C° 0.1 mm 2 mps 747 mmHg 74%
    10:00 +34°C° 0.1 mm 2 mps 746 mmHg 65%
    11:00 +34°C° 1 mm 2 mps 746 mmHg 67%
    12:00 +34°C° 1 mm 2 mps 745 mmHg 70%
    13:00 +33°C° 1 mm 1 mps 744 mmHg 72%
    14:00 +32°C° 1.8 mm 1 mps 744 mmHg 79%
    15:00 +31°C° 1.8 mm 1 mps 743 mmHg 85%
    16:00 +30°C° 1.8 mm 1 mps 743 mmHg 92%
    17:00 +28°C° 0.3 mm 1 mps 743 mmHg 93%
    18:00 +27°C° 0.3 mm 1 mps 744 mmHg 95%
    19:00 +26°C° 0.3 mm 1 mps 744 mmHg 96%
    20:00 +26°C° 0.1 mm 1 mps 745 mmHg 97%
    21:00 +26°C° 0.1 mm 1 mps 746 mmHg 97%
    22:00 +25°C° 0.1 mm 1 mps 747 mmHg 97%
    23:00 +25°C° 0.1 mm 1 mps 746 mmHg 97%

    Day after tomorrow, 15 December, Saturday

    Time Temperature Precipitation Wind Pressure Humidity
    00:00 +25°C° 0.1 mm 1 mps 746 mmHg 97%
    01:00 +25°C° 0.1 mm 1 mps 746 mmHg 97%
    02:00 +25°C° 0 mm 1 mps 746 mmHg 97%
    03:00 +25°C° 0 mm 1 mps 746 mmHg 97%
    04:00 +25°C° 0 mm 1 mps 746 mmHg 97%
    05:00 +25°C° 0 mm 2 mps 746 mmHg 93%
    06:00 +26°C° 0 mm 2 mps 747 mmHg 90%
    07:00 +27°C° 0 mm 2 mps 748 mmHg 86%
    08:00 +29°C° 0.1 mm 2 mps 748 mmHg 79%
    09:00 +30°C° 0.1 mm 2 mps 748 mmHg 71%
    10:00 +32°C° 0.1 mm 2 mps 748 mmHg 64%
    11:00 +32°C° 1.3 mm 2 mps 747 mmHg 70%
    12:00 +31°C° 1.3 mm 2 mps 746 mmHg 77%
    13:00 +31°C° 1.3 mm 2 mps 745 mmHg 83%
    14:00 +31°C° 1 mm 1 mps 745 mmHg 83%
    15:00 +31°C° 1 mm 1 mps 744 mmHg 82%
    16:00 +31°C° 1 mm 1 mps 744 mmHg 82%
    17:00 +27°C° 0.7 mm 0 mps 744 mmHg 85%
    18:00 +26°C° 0.7 mm 0 mps 745 mmHg 89%
    19:00 +25°C° 0.7 mm 0 mps 745 mmHg 93%
    20:00 +24°C° 1 mm 0 mps 746 mmHg 93%
    21:00 +24°C° 1 mm 0 mps 747 mmHg 94%
    22:00 +24°C° 1 mm 0 mps 747 mmHg 94%
    23:00 +24°C° 0.9 mm 0 mps 747 mmHg 95%

    16 December, Sunday

    Time Temperature Precipitation Wind Pressure Humidity
    00:00 +23°C° 0.9 mm 0 mps 746 mmHg 96%
    01:00 +23°C° 0.9 mm 0 mps 746 mmHg 97%
    02:00 +23°C° 1 mm 0 mps 746 mmHg 97%
    03:00 +25°C° 1 mm 1 mps 746 mmHg 98%
    04:00 +25°C° 1 mm 1 mps 746 mmHg 98%
    05:00 +25°C° 0.2 mm 1 mps 747 mmHg 98%
    06:00 +25°C° 0.2 mm 1 mps 748 mmHg 97%
    07:00 +26°C° 0.2 mm 1 mps 749 mmHg 97%
    08:00 +27°C° 1.1 mm 1 mps 749 mmHg 95%
    09:00 +28°C° 1.1 mm 1 mps 749 mmHg 94%
    10:00 +29°C° 1.1 mm 1 mps 749 mmHg 92%
    11:00 +29°C° 1.4 mm 1 mps 748 mmHg 90%
    12:00 +29°C° 1.4 mm 1 mps 747 mmHg 89%
    13:00 +30°C° 1.4 mm 1 mps 746 mmHg 87%
    14:00 +28°C° 1.9 mm 0 mps 745 mmHg 88%
    15:00 +28°C° 1.9 mm 0 mps 745 mmHg 90%
    16:00 +28°C° 1.9 mm 0 mps 744 mmHg 91%
    17:00 +26°C° 1.5 mm 0 mps 744 mmHg 93%
    18:00 +25°C° 1.5 mm 0 mps 745 mmHg 94%
    19:00 +24°C° 1.5 mm 0 mps 745 mmHg 96%
    20:00 +24°C° 0.2 mm 0 mps 746 mmHg 96%
    21:00 +23°C° 0.2 mm 0 mps 746 mmHg 96%
    22:00 +23°C° 0.2 mm 0 mps 747 mmHg 96%
    23:00 +23°C° 0.2 mm 0 mps 746 mmHg 97%

    17 December, Monday

    Time Temperature Precipitation Wind Pressure Humidity
    00:00 +23°C° 0.2 mm 0 mps 746 mmHg 97%
    01:00 +25°C° 0.2 mm 1 mps 745 mmHg 97%
    02:00 +25°C° 0.4 mm 1 mps 745 mmHg 98%
    03:00 +23°C° 0.4 mm 0 mps 745 mmHg 98%
    04:00 +23°C° 0.4 mm 0 mps 745 mmHg 98%
    05:00 +23°C° 0.4 mm 0 mps 746 mmHg 98%
    06:00 +23°C° 0.4 mm 0 mps 747 mmHg 97%
    07:00 +23°C° 0.4 mm 0 mps 747 mmHg 97%
    08:00 +24°C° 0.5 mm 0 mps 747 mmHg 96%
    09:00 +26°C° 0.5 mm 1 mps 747 mmHg 96%
    10:00 +27°C° 0.5 mm 1 mps 747 mmHg 95%
    11:00 +28°C° 0.9 mm 1 mps 746 mmHg 93%
    12:00 +28°C° 0.9 mm 1 mps 746 mmHg 91%
    13:00 +29°C° 0.9 mm 1 mps 745 mmHg 89%
    14:00 +27°C° 0.7 mm 0 mps 744 mmHg 86%
    15:00 +28°C° 0.7 mm 0 mps 744 mmHg 82%
    16:00 +28°C° 0.7 mm 0 mps 743 mmHg 78%
    17:00 +27°C° 0.2 mm 0 mps 744 mmHg 83%
    18:00 +26°C° 0.2 mm 0 mps 744 mmHg 87%
    19:00 +24°C° 0.2 mm 0 mps 745 mmHg 91%
    20:00 +24°C° 0.1 mm 0 mps 745 mmHg 92%
    21:00 +24°C° 0.1 mm 0 mps 745 mmHg 94%
    22:00 +25°C° 0.1 mm 1 mps 746 mmHg 95%
    23:00 +25°C° 0.1 mm 1 mps 745 mmHg 95%

    18 December, Tuesday

    Time Temperature Precipitation Wind Pressure Humidity
    00:00 +25°C° 0.1 mm 1 mps 745 mmHg 96%
    01:00 +25°C° 0.1 mm 1 mps 745 mmHg 97%
    02:00 +25°C° 0.1 mm 1 mps 745 mmHg 97%
    03:00 +25°C° 0.1 mm 1 mps 745 mmHg 97%
    04:00 +24°C° 0.1 mm 1 mps 745 mmHg 97%
    05:00 +25°C° 0.2 mm 1 mps 745 mmHg 97%
    06:00 +25°C° 0.2 mm 1 mps 746 mmHg 96%
    07:00 +25°C° 0.2 mm 1 mps 747 mmHg 96%
    08:00 +25°C° 0.5 mm 1 mps 747 mmHg 96%
    09:00 +26°C° 0.5 mm 1 mps 747 mmHg 96%
    10:00 +26°C° 0.5 mm 1 mps 747 mmHg 97%
    11:00 +27°C° 0.6 mm 1 mps 746 mmHg 91%
    12:00 +28°C° 0.6 mm 1 mps 745 mmHg 86%
    13:00 +30°C° 0.6 mm 1 mps 745 mmHg 81%
    14:00 +30°C° 0.3 mm 1 mps 744 mmHg 78%
    15:00 +30°C° 0.3 mm 1 mps 744 mmHg 76%
    16:00 +31°C° 0.3 mm 1 mps 743 mmHg 74%
    17:00 +29°C° 0.1 mm 1 mps 744 mmHg 80%
    18:00 +28°C° 0.1 mm 1 mps 744 mmHg 87%
    19:00 +24°C° 0.1 mm 0 mps 745 mmHg 93%
    20:00 +24°C° 0.8 mm 0 mps 745 mmHg 94%
    21:00 +23°C° 0.8 mm 0 mps 746 mmHg 96%
    22:00 +23°C° 0.8 mm 0 mps 746 mmHg 97%
    23:00 +23°C° 1.4 mm 0 mps 746 mmHg 98%
    Show more